Date,TemperatureHighF,TemperatureAvgF,TemperatureLowF,DewpointHighF,DewpointAvgF,DewpointLowF,HumidityHigh,HumidityAvg,HumidityLow,PressureMaxIn,PressureMinIn,WindSpeedMaxMPH,WindSpeedAvgMPH,GustSpeedMaxMPH,PrecipitationSumIn
2013-8-1,69.8,61.0,55.4,58.7,57.1,53.9,98,88,67,30.09,30.03,7,2,0,0.04
2013-8-2,76.8,64.1,52.9,60.4,56.7,52.2,98,79,56,30.08,29.97,10,2,0,0.00
2013-8-3,79.0,62.9,52.0,62.4,56.5,51.5,98,82,57,30.02,29.88,9,2,0,0.00
2013-8-4,75.9,62.9,55.6,62.6,57.4,54.8,98,83,62,29.95,29.87,8,3,0,0.00
2013-8-5,75.6,60.7,53.6,61.3,55.7,51.3,98,85,61,29.96,29.85,6,2,0,0.00
2013-8-6,71.8,59.0,51.8,59.4,53.9,50.8,98,84,63,29.96,29.89,9,2,0,0.00
2013-8-7,63.7,57.2,54.1,57.4,54.2,52.3,98,90,79,30.05,29.95,6,2,0,0.00
2013-8-8,75.0,61.7,53.4,63.0,57.0,52.8,98,86,64,30.04,29.86,7,2,0,0.02
2013-8-9,78.3,61.9,55.4,63.4,57.7,54.5,98,87,57,29.93,29.78,9,2,0,0.31
2013-8-10,66.7,60.8,57.6,60.7,58.3,56.9,98,92,79,30.01,29.90,4,1,0,0.03
2013-8-11,74.1,61.8,53.4,62.0,57.3,52.8,98,87,64,30.02,29.92,5,1,0,0.00
2013-8-12,76.1,61.2,48.7,60.2,54.3,48.2,98,81,56,30.02,29.95,7,2,0,0.00
2013-8-13,83.1,61.9,47.7,62.2,54.0,47.2,98,79,48,30.03,29.88,8,2,0,0.00
2013-8-14,82.2,64.6,49.8,65.2,57.2,49.3,98,80,40,29.94,29.83,9,2,0,0.00
2013-8-15,77.2,67.9,64.0,67.3,63.7,61.7,94,87,71,29.90,29.84,9,1,0,0.00
2013-8-16,80.2,68.3,57.4,65.3,61.3,56.3,98,80,55,29.99,29.87,8,2,0,0.00
2013-8-17,79.0,64.0,52.0,65.3,58.6,51.5,98,84,62,30.04,29.96,7,2,0,0.00
2013-8-18,82.0,64.8,50.9,64.3,57.8,50.4,98,81,53,30.05,29.93,9,2,0,0.00
2013-8-19,82.9,66.4,55.9,65.0,59.4,54.8,98,81,47,30.03,29.93,11,2,0,0.00
2013-8-20,81.1,64.3,50.0,60.8,54.2,49.5,98,74,41,30.01,29.82,12,2,0,0.00
2013-8-21,82.4,62.2,47.1,60.7,53.6,46.6,98,78,43,29.90,29.76,7,2,0,0.00
2013-8-22,64.9,60.0,55.9,58.9,56.7,54.2,96,89,80,29.90,29.84,9,2,0,0.00
2013-8-23,73.9,62.2,54.3,61.0,58.1,53.7,98,87,59,29.90,29.82,6,1,0,0.01
2013-8-24,76.1,62.1,52.2,62.1,56.2,51.7,98,83,56,29.86,29.76,9,2,0,0.00
2013-8-25,66.7,58.0,52.5,60.3,55.9,52.0,98,93,77,29.88,29.82,5,1,0,0.09
2013-8-26,77.7,63.8,51.4,60.0,54.7,48.8,98,76,39,29.89,29.84,16,3,0,0.00
2013-8-27,80.2,66.4,57.6,62.5,60.0,57.0,98,81,54,29.88,29.74,11,2,0,0.00
2013-8-28,76.8,66.3,57.2,64.5,61.4,56.6,98,85,65,29.81,29.74,7,1,0,0.00
2013-8-29,80.1,67.5,60.6,69.5,63.8,60.0,98,89,62,30.00,29.77,16,2,0,0.44
2013-8-30,82.9,69.3,57.2,67.7,63.5,56.6,98,84,53,30.04,29.92,7,2,0,0.00
2013-8-31,71.4,60.5,54.0,61.9,57.7,53.4,98,91,72,29.95,29.81,9,2,0,0.00